User: anonymous   Login
Location: Clinton NY
(43.0598°N, 75.3602°W)
Time: 01:00:01
(UTC-04:00)
Language:

Iridium 11 - Orbit

View from above orbital plane
View from above orbital plane
View from above satellite
View from above satellite

Ground track
Ground track

The orbit data is extracted from the following two-line orbital elements,

1 25578U 98074B   16238.44118321  .00000029  00000-0  32460-5 0  9990
2 25578  86.3973  19.2320 0002167  97.9422 318.0616 14.34214772935019
Epoch (UTC): 25 August 2016 10:35:18
Eccentricity: 0.0002167
inclination: 86.3973°
perigee height: 776 km
apogee height: 779 km
right ascension of ascending node: 19.2320°
argument of perigee: 97.9422°
revolutions per day: 14.34214772
mean anomaly at epoch: 318.0616°
orbit number at epoch: 93501

The dashed part of the orbit path shows where the satellite is in the earth's shadow,  

DLR